Regional Weather Roundup
Issued by NWS Grand Forks, ND

Home | Current Version | Previous Version | Graphics & Text | Print | Product List | Glossary Off
Versions: 1 2 3 4 5 6 7 8 9 10 11 12 13 14 15 16 17 18 19 20 21 22 23 24 25 26 27 28 29 30 31 32 33 34 35 36 37 38 39 40 41 42 43 44 45 46 47 48 49 50

000
ASUS43 KFGF 271431
RWRFGF
PRAIRIE TO PINES  WEATHER ROUNDUP
NATIONAL WEATHER SERVICE EASTERN NORTH DAKOTA/GRAND FORKS ND
800 AM CST THU NOV 27 2014

 **SATELLITE DATA USED TO AUGMENT SKY COVER AT AUTOMATED STATIONS**
 *****  WEATHER ACROSS EASTERN NORTH DAKOTA  *****

CITY           SKY/WX    TMP DP  RH WIND       PRES   REMARKS
GRAND FORKS    PTCLDY   -12 -17  78 S6        30.51S WCI -26
GRAND FRKS AFB PTCLDY   -13 -18  77 SW5       30.49F WCI -25
GRAND FRKS NWS   N/A    -11 N/A N/A SW6         N/A  WCI -25
DEVILS LAKE    PTCLDY    -6 -17  59 S7        30.35F WCI -20
FARGO          PTCLDY   -10 -17  71 S5        30.53S WCI -22
WAHPETON ARPT  FAIR     -11 -17  77 CALM      30.54S
$$

 ***** WEATHER ACROSS CENTRAL AND WESTERN NORTH DAKOTA  *****

CITY           SKY/WX    TMP DP  RH WIND       PRES   REMARKS
BISMARCK       PTCLDY    -9 -14  78 E8        30.35S WCI -25
MINOT          CLOUDY     0  -6  76 E5        30.25F WCI -10
JAMESTOWN      MOCLDY   -21 -28  70 S6        30.40F WCI -36
MINOT AFB      CLOUDY    -2  -6  84 SE6       30.27F WCI -14
GARRISON         N/A      7   4  87 S12       30.26F WCI  -8
WILLISTON      CLOUDY    13   8  81 SE5       30.15F WCI   5
DICKINSON      CLOUDY    15  12  88 S14       30.12F WCI   0
HETTINGER      LGT SNOW  13  10  88 SE12      30.17F FOG     WCI  -1
$$

 *****  OTHER AIRPORT OBSERVATIONS IN OUR AREA  *****

CITY           SKY/WX    TMP DP  RH WIND       PRES   REMARKS
WALHALLA         N/A    -15 -20  76 S3        30.44F
GRAFTON AIRPOR FAIR     -13 -18  77 S7        30.49S WCI -29
VALLEY CITY AR   N/A    -18 -22  83 SW5       30.44S WCI -31
CANDO          FAIR     -15 -20  76 S7        30.36F WCI -31
CAVALIER APRT  FAIR     -11 -17  77 S7        30.46F WCI -26
GWINNER        SUNNY    -13 -18  77 SW7       30.49R WCI -29
ROLLA          FAIR      -8 -11  84 SW8       30.29F WCI -23
 ***** THE ABOVE OBSERVATIONS ARE NON NWS ARE NOT QUALITY
       CONTROLLED AND MAY MIS-REPORT RAIN FOR SNOW...
$$

  *****  WEATHER ACROSS NORTHERN MINNESOTA  *****

CITY           SKY/WX    TMP DP  RH WIND       PRES   REMARKS
FLAG ISLAND    MOCLDY   -17 -22  76 CALM      30.44S
WARROAD        PTCLDY   -15 -20  76 S3        30.45F
ROSEAU         PTCLDY   -15 -20  76 S3        30.46F
HALLOCK        PTCLDY   -13 -18  77 S7        30.47F WCI -29
THF RVR FALLS  MOCLDY   -15 -17  91 S3        30.47S
BAUDETTE       MOCLDY   -18 -23  77 SW5       30.45R WCI -31
WASKISH        MOCLDY   -15 -18  84 CALM      30.46R
CROOKSTON      MOCLDY   -15 -18  84 S5        30.52F WCI -27
STEPHEN NDAWN    N/A    -15 -18  84 SE3         N/A
GREENBUSH NDAW   N/A    -15 -18  84 S3          N/A
$$
  *****  WEATHER ACROSS CENTRAL AND WEST MINNESOTA  *****

CITY           SKY/WX    TMP DP  RH WIND       PRES   REMARKS
FOSSTON        PTCLDY   -20 -26  76 CALM      30.47S
BEMIDJI        PTCLDY   -20 -26  75 CALM      30.44S HAZE
PARK RAPIDS    FAIR     -16 -21  78 CALM      30.44R
ELBOW LAKE     FAIR     -11 -15  82 CALM      30.50R FOG
WADENA         PTCLDY    -9 -15  77 CALM      30.46S
DETROIT LAKES  PTCLDY    -9 -13  84 CALM      30.47S
MOORHEAD       PTCLDY   -11 -15  84 CALM      30.53R
FERGUS FALLS   FAIR     -11 -18  70 CALM      30.55R
MORRIS MN      PTCLDY    -9 -15  77 N5        30.50S WCI -21
STAPLES        PTCLDY    -9 -15  77 W3        30.47R
$$
  *****  WEATHER ELSEWHERE ACROSS MINNESOTA  *****

CITY           SKY/WX    TMP DP  RH WIND       PRES   REMARKS
DULUTH         PTCLDY    -9 -15  75 NW10      30.38F WCI -27
INTRNTL FALLS  MOCLDY   -19 -25  73 CALM      30.44F
ELY            MOCLDY   -18 -24  76 CALM      30.40R
CLOQUET        PTCLDY    -8 -13  77 NW5       30.42R WCI -19
WHEATON        PTCLDY    -9 -15  77 CALM      30.54S
BRAINERD       MOCLDY    -8 -12  83 NW3       30.46F
HIBBING        PTCLDY   -16 -22  74 CALM      30.43R
ALEXANDRIA     PTCLDY   -10 -13  86 W3        30.47S
SAINT CLOUD    MOCLDY    -6 -11  79 NW5       30.50R WCI -17
MINNEAPOLIS    PTCLDY    -2  -7  79 NW5       30.50S WCI -12
$$

  *****  WEATHER ACROSS SOUTH DAKOTA  *****

CITY           SKY/WX    TMP DP  RH WIND       PRES   REMARKS
SIOUX FALLS    MOCLDY    -5 -11  75 NE6       30.47S WCI -18
BROOKINGS      NOT AVBL
WATERTOWN      PTCLDY   -12 -17  78 CALM      30.41F
HURON          MOCLDY    -4  -8  83 SE5       30.47R WCI -15
SISSETON         N/A    -13 -18  78 CALM      30.49F
ABERDEEN       PTCLDY   -13 -19  75 CALM      30.47R
MITCHELL       MOCLDY     1  -6  72 SE6       30.49R WCI -10
PIERRE         CLOUDY    12   8  84 SE14      30.32F WCI  -3
MOBRIDGE       MOCLDY     3  -3  76 SE12      30.31F WCI -13
RAPID CITY     CLOUDY    19  17  92 SE12      30.11F WCI   7
$$

  *****  SOME WEATHER IN NEARBY STATES *****

CITY           SKY/WX    TMP DP  RH WIND       PRES   REMARKS
GLASGOW MT     CLOUDY    22  18  85 SE20      29.94F WCI   7
GREAT FALLS MT PTCLDY    41  31  67 SW15      29.81F
CHEYENNE WY    PTCLDY    45  19  35 W26G35    30.16S
SCOTTSBLUFF NE MOCLDY    11   8  88 CALM      30.15S
OMAHA NE       MOCLDY    16   8  71 NE5       30.54R WCI   9
DES MOINES IA  MOCLDY     4  -4  69 NW9       30.52R WCI -10
DAVENPORT IA   LGT SNOW  21  16  81 NW16      30.39R WCI   7
CHICAGO IL     CLOUDY    24  19  81 NW15      30.30R WCI  11
EAU CLAIRE WI  FAIR      -1  -7  75 NW5       30.45R WCI -11
LA CROSSE WI   CLEAR      8  -1  66 N12       30.45R WCI  -7
$$

  *****  SOME NATIONAL WEATHER *****

CITY           SKY/WX    TMP DP  RH WIND       PRES   REMARKS
LA GUARDIA NY  CLOUDY    37  30  75 NW7       30.00R
RALEIGH NC     CLOUDY    43  40  89 S6        30.02S FOG
ATLANTA GA     PTSUNNY   42  30  62 W13G21    30.23R
NEW ORLEANS LA SUNNY     53  37  54 N14       30.43R
OKLAHOMA CITY  PTCLDY    33  23  66 NE6       30.51S
ALBUQUERQUE NM PTCLDY    33  21  61 NW8       30.46R
SALT LAKE CITY CLOUDY    46  26  45 SE15G23   30.28S
LOS ANGELES CA CLEAR     61  21  21 E3        30.09R
BOISE ID       CLOUDY    45  37  73 SE12      30.15S
SEATTLE WA     CLOUDY    53  47  79 S14       29.85F
$$

*** WEATHER ACROSS MANITOBA...SASKATCHEWAN AND ONTARIO ***
                ***ONTARIO***

CITY           SKY/WX    TMP DP  RH WIND       PRES   REMARKS
GERALDTON      CLEAR    -22 -29  69 NW2       30.32S
THUNDER BAY    PTCLDY    -9 -15  77 W9        30.45S WCI -27
SIOUX LOOKOUT  CRYSTALS -20 -26  76 CALM      30.39S
TORONTO        PTSUNNY   30  27  86 SW6       30.06S WCI  24
BIG TROUT LK   CLEAR    -20 -26  76 SW7       30.29F WCI -37
PICKLE LAKE    PTCLDY   -20 -27  69 W7        30.33S WCI -37
DRYDEN         CLEAR    -18 -24  76 SW5       30.39  WCI -31
KENORA         CLEAR    -15 -20  76 SW5       30.39F WCI -27
$$
                *** MANITOBA***

CITY           SKY/WX    TMP DP  RH WIND       PRES   REMARKS
BRANDON        MOCLDY   -17 -22  76 NW2       30.33F
DAUPHIN        CLEAR     -9 -15  77 SW5       30.31F WCI -21
ISLAND LAKE    CLEAR    -13 -20  70 SW8       30.30F WCI -30
PILOT MOUND      N/A    -15 -20  76 S7          N/A  WCI -31
THE PAS        MOCLDY   -11 -15  84 S5        30.20F WCI -23
THOMPSON       FLURRIES -11 -17  77 SW7       30.16F WCI -26
WINNIPEG       CRYSTALS -17 -22  76 S8        30.46F WCI -34
LYNN LAKE      FLURRIES   0  -4  85 NW7       30.12R WCI -13
CHURCHILL      MOCLDY    -4  -9  77 NW14G23   30.07S BLWGSNOWWCI -24
GILLAM         PTCLDY   -13 -18  77 SW7       30.14F WCI -29
$$
                ***SASKATCHEWAN***

CITY           SKY/WX    TMP DP  RH WIND       PRES   REMARKS
ESTEVAN        FLURRIES   5   1  85 SE10      30.17F WCI -10
KINDERSLEY     LGT SNOW  19  16  86 E13       29.91F WCI   7
LLOYDMINSTER   LGT SNOW  10   9  92 NE12      30.00F WCI  -4
PRINCE ALBERT  FLURRIES   0  -4  85 E5        30.13F WCI -10
REGINA         MOCLDY     9   5  85 SE14      30.10F WCI  -8
YORKTON        FLURRIES  -2  -6  84 SE7       30.18F WCI -16
N. BATTLEFORD  CLOUDY     5   3  92 E9        30.07F WCI  -9
LA RONGE       FLURRIES   0  -4  85 NW6       30.18S WCI -12
SASKATOON      MOCLDY     3   1  92 NE7       30.08F WCI  -9
SWIFT CURRENT  LGT SNOW  21  19  93 SE23G30   29.90F WCI   5
$$
NOTE: THESE ARE AUTOMATED STATIONS WITH LIMITED QUALITY CONTROL
      "FAIR" INDICATES FEW OR NO CLOUDS BELOW 12,000 FEET WITH NO
      SIGNIFICANT WEATHER AND/OR OBSTRUCTIONS TO VISIBILITY.
      SKY/WX - SKY CONDITION AND SIGNIFICANT WEATHER.
      TMP - AIR TEMPERATURE.    DP   - DEWPOINT TEMPERATURE.
      RH  - RELATIVE HUMIDITY.  PRES - PRESSURE.
      HX  - HEAT INDEX.         WCI  - WIND CHILL INDEX.
$


USA.gov is the U.S. government's official web portal to all federal, state and local government web resources and services.